Wind_Speed
25 24 24 24 24 24 24 24 24 23 24 24 26 27 28 28 29 29 29 29 28 28 28 29 29 29 30 31 31 32 32 33 33 34 34 34 35 36 37 38 38 38 39 39
25 24 25 25 24 24 24 24 24 24 23 25 26 27 27 27 28 28 28 28 28 28 28 27 27 28 29 30 30 30 30 31 32 33 33 34 35 36 36 37 37 36 36 38
25 25 25 24 23 24 24 24 24 24 23 24 25 25 25 26 27 27 26 26 27 27 27 26 27 28 29 29 30 30 30 31 32 32 33 33 34 34 35 35 35 35 35 35
25 24 24 22 22 23 24 23 23 23 23 23 23 23 24 25 26 25 25 25 25 25 25 24 26 27 27 28 28 28 29 30 31 31 32 33 33 33 33 33 33 33 33 33
24 24 23 21 22 23 23 23 24 24 24 24 24 23 23 25 25 25 25 24 24 24 23 23 24 26 27 28 28 28 28 30 30 30 30 31 31 32 31 32 33 32 32 32
24 25 24 23 23 24 24 24 24 24 25 25 25 25 23 24 24 25 24 24 23 23 22 22 23 24 25 27 28 28 29 29 29 29 29 29 30 30 30 30 30 29 30 31
24 24 23 23 23 24 24 25 25 25 25 26 26 26 24 23 24 24 24 23 22 21 22 22 22 23 23 24 25 26 27 28 28 28 28 28 28 28 28 28 29 29 29 29
24 23 22 22 23 23 23 23 24 24 25 26 25 25 24 24 23 23 23 23 22 22 22 22 22 22 22 23 24 25 26 27 27 27 27 27 27 27 27 27 28 28 28 28
24 23 23 23 23 23 23 23 23 24 25 26 25 25 24 24 23 22 22 22 22 22 22 22 22 22 22 22 23 23 24 25 26 27 26 26 26 26 27 27 27 27 28 29
23 23 23 23 24 24 24 24 23 24 24 25 25 24 24 24 23 21 21 21 21 22 21 21 21 21 21 21 21 21 21 22 23 23 24 25 26 26 26 26 27 27 27 28
23 24 24 23 24 25 24 24 24 24 24 24 24 23 23 22 22 21 21 20 20 20 19 19 20 20 20 20 19 19 19 20 21 22 23 23 24 24 24 25 25 25 26 26
23 23 24 24 24 24 25 25 25 24 24 24 23 22 21 21 20 20 19 18 17 17 17 17 17 18 18 18 18 18 18 18 20 20 21 22 22 22 23 23 23 24 24 24
24 24 24 24 24 24 24 25 25 24 23 22 22 21 20 19 18 18 17 17 17 16 16 16 16 17 17 18 18 18 18 18 18 19 20 20 20 21 21 21 22 22 22 23
24 24 24 23 23 23 24 24 24 23 22 21 21 20 19 18 17 17 17 17 17 16 16 17 17 18 18 18 17 17 18 18 18 19 19 20 20 20 21 21 21 22 22 23
23 23 23 23 23 23 23 23 23 22 21 20 19 19 18 17 17 17 17 17 17 17 17 17 18 18 18 18 18 18 18 18 18 18 18 19 20 20 21 21 21 21 21 22
23 22 22 22 23 23 23 23 22 21 21 20 19 18 16 16 16 16 17 17 17 18 18 18 18 18 18 18 18 19 19 18 18 18 18 18 19 19 19 20 20 20 20 21
23 23 22 22 23 23 23 22 21 21 20 19 18 17 16 15 15 15 16 17 17 17 17 18 18 19 18 18 18 18 18 18 18 18 18 17 18 18 18 18 18 19 19 19
24 23 23 23 23 22 22 21 21 20 19 18 17 17 16 15 15 16 16 16 16 16 16 16 17 18 18 17 17 16 17 17 17 17 17 17 17 16 16 16 16 17 17 17
24 24 24 23 23 22 21 20 20 19 19 18 17 16 16 16 16 16 17 16 16 16 16 17 17 17 17 16 16 16 16 16 16 16 16 16 16 15 15 15 15 15 15 15
24 24 23 23 22 21 20 19 19 18 18 18 17 16 16 16 16 17 17 17 17 16 17 17 17 17 16 16 16 16 16 16 16 15 15 15 15 15 14 14 14 14 14 14
24 24 23 22 21 21 20 19 18 18 18 17 17 17 17 17 17 17 17 17 17 17 17 17 18 17 17 16 16 16 16 15 15 15 14 14 14 14 14 14 14 13 12 13
23 23 22 21 21 20 19 18 18 18 18 18 17 17 17 17 17 17 17 18 18 18 18 18 18 17 17 16 16 16 15 15 14 14 14 14 14 14 14 14 13 13 12 12
22 21 21 21 20 19 19 18 18 18 18 18 18 17 17 17 17 18 18 18 18 18 18 17 18 17 17 16 16 16 15 15 14 14 14 14 13 14 14 14 13 13 13 13
21 21 21 20 20 19 18 18 18 19 18 18 18 18 17 18 18 18 18 18 18 18 18 17 17 17 16 16 17 16 16 16 15 15 14 14 14 14 14 14 14 14 14 13
21 21 21 20 19 19 18 18 18 18 18 18 17 17 18 18 18 18 18 18 17 17 17 17 17 17 16 16 16 16 16 16 15 15 14 14 14 14 14 14 14 14 14 13
20 20 20 19 19 18 18 18 18 18 17 17 17 17 17 18 18 18 18 17 17 17 17 17 17 16 16 15 15 15 15 15 14 13 13 13 13 13 13 13 13 13 14 13
20 20 19 19 19 18 18 18 18 18 17 17 17 16 16 17 17 17 17 17 16 16 16 16 16 15 15 14 14 14 13 12 12 12 11 11 10 11 11 12 12 13 13 13
Wind_Direction
291 291 290 289 289 290 291 293 293 295 294 293 292 291 291 290 288 285 282 280 279 278 276 269 266 263 261 261 261 262 263 262 261 261 260 260 259 259 257 254 252 254 254 252
290 290 291 291 289 289 290 292 293 294 294 292 294 294 293 292 290 287 284 281 280 279 276 271 267 264 261 262 262 263 264 263 261 262 261 261 260 260 258 255 253 253 253 251
290 289 289 291 291 288 289 292 294 296 297 295 295 294 294 292 290 288 285 283 283 280 277 271 266 263 262 262 262 263 264 263 262 262 261 261 260 259 257 255 253 252 252 251
291 290 291 294 291 290 291 294 295 297 297 297 297 296 295 293 291 288 288 286 285 282 277 270 267 264 264 265 265 265 264 262 261 263 262 261 260 259 256 254 253 254 252 251
291 292 292 292 294 294 293 294 296 296 297 296 296 297 295 294 292 290 289 287 286 284 278 274 271 268 266 268 268 268 267 264 262 263 263 261 260 258 255 254 254 254 250 251
290 291 292 293 294 295 295 295 297 298 298 297 295 296 295 293 292 290 289 289 287 283 278 275 273 273 272 270 269 269 268 266 262 261 262 261 258 256 256 256 256 254 250 252
290 290 292 294 295 296 295 297 297 296 296 297 297 296 295 292 290 289 288 287 286 282 277 275 274 274 274 272 271 270 268 266 263 261 260 259 258 257 256 256 256 253 252 254
291 291 294 295 297 297 298 298 299 298 297 299 300 297 294 292 290 289 288 286 284 282 279 275 275 276 275 275 274 271 268 266 264 263 263 262 260 259 258 257 256 254 254 254
292 293 292 293 294 296 298 300 301 301 300 299 299 297 295 292 290 290 289 287 285 283 280 277 275 276 277 277 276 274 270 269 265 264 264 262 260 259 258 257 256 256 256 256
292 293 291 290 291 294 297 302 304 303 302 300 300 298 293 290 289 289 289 288 287 285 282 278 275 275 278 277 277 277 275 270 264 262 262 260 259 257 257 258 258 258 257 256
294 293 291 289 289 292 295 300 304 304 302 301 300 298 295 291 288 287 288 288 289 287 283 280 279 278 278 279 279 280 276 271 267 265 261 260 261 259 257 258 258 256 254 253
295 294 292 290 289 291 293 297 301 303 302 300 298 298 295 292 288 286 287 287 289 288 284 283 283 282 283 283 282 281 279 275 270 267 263 262 262 262 260 258 256 252 251 252
293 293 293 291 291 294 295 298 300 301 301 299 298 298 296 291 286 284 286 286 290 290 288 287 288 286 284 283 282 282 282 280 275 270 266 263 262 262 261 261 257 255 252 252
293 293 293 293 293 294 296 298 299 300 300 299 297 297 294 290 286 284 285 287 289 288 289 289 290 290 288 285 282 282 282 281 277 273 268 265 264 263 263 262 259 257 253 253
293 294 294 295 294 293 295 297 298 298 298 298 298 295 292 290 288 286 287 287 288 288 288 288 290 292 290 287 284 283 281 281 279 275 271 268 266 266 265 262 260 258 255 255
292 294 295 296 295 294 293 294 296 296 296 296 296 295 294 291 290 289 290 289 289 289 288 286 288 292 292 290 288 286 284 281 279 277 274 271 268 267 266 263 261 258 257 256
292 294 295 295 295 295 293 292 293 295 295 294 294 293 293 292 291 291 293 293 293 292 289 287 288 290 291 292 291 290 287 283 281 279 276 273 270 267 265 264 262 260 258 257
290 291 293 295 296 296 294 291 291 292 292 291 290 290 290 290 291 292 293 294 295 294 293 291 291 291 293 293 292 291 290 287 285 280 276 273 271 269 267 265 264 262 258 255
290 290 292 293 294 294 295 293 290 289 288 287 287 287 287 289 291 292 292 292 294 295 295 295 294 294 294 294 292 290 290 289 287 283 276 272 271 269 266 264 265 263 258 253
291 290 290 291 292 291 292 292 290 288 287 287 285 285 285 287 291 292 292 291 291 293 294 294 294 293 294 294 293 292 289 287 286 283 276 272 269 267 263 261 262 262 257 251
291 290 289 290 290 289 289 289 288 287 287 287 285 283 283 286 290 293 293 291 291 292 294 295 295 294 294 295 295 293 289 286 284 280 273 269 267 265 261 257 257 257 251 246
291 289 289 289 288 287 287 287 286 286 286 286 284 284 285 287 288 291 292 291 290 290 293 295 295 293 292 292 294 293 289 286 282 279 275 269 267 265 262 258 253 248 244 242
291 289 289 289 287 285 286 286 287 287 286 286 284 284 285 287 288 289 290 291 290 291 293 294 295 294 290 290 292 291 289 286 282 279 276 271 268 264 259 254 248 244 240 241
290 289 289 288 286 286 287 288 288 287 286 285 283 283 284 285 286 288 290 292 292 292 293 293 296 295 291 290 290 288 287 285 281 278 274 270 265 262 256 250 245 242 240 237
290 289 288 287 285 285 286 287 288 287 285 283 282 282 283 284 285 287 290 292 293 294 294 293 295 294 291 289 289 288 287 285 282 278 274 268 262 257 250 245 243 239 233 231
290 290 289 287 286 286 286 287 287 287 284 282 281 281 282 283 284 286 288 291 293 295 295 295 295 294 291 289 289 289 288 286 283 278 274 269 262 253 245 240 236 231 227 226
292 291 290 287 286 286 286 286 286 285 282 280 280 280 281 282 283 285 287 289 292 294 296 296 296 295 292 291 289 289 289 287 283 278 273 267 257 248 241 235 230 225 223 223
Height
5600 5598 5595 5594 5593 5591 5588 5586 5585 5583 5581 5579 5575 5573 5571 5569 5567 5565 5563 5562 5560 5559 5559 5559 5558 5559 5559 5560 5561 5562 5563 5564 5565 5566 5567 5568 5569 5570 5572 5574 5577 5579 5582 5584
5594 5591 5589 5588 5587 5585 5583 5581 5579 5577 5576 5572 5570 5567 5565 5562 5560 5558 5557 5555 5554 5553 5552 5551 5551 5551 5552 5553 5554 5554 5555 5555 5556 5557 5558 5559 5560 5561 5563 5565 5567 5570 5572 5575
5587 5585 5583 5583 5582 5579 5577 5575 5573 5571 5570 5566 5564 5561 5558 5556 5554 5552 5550 5549 5548 5546 5545 5545 5544 5545 5545 5546 5546 5547 5547 5547 5548 5549 5550 5551 5552 5552 5554 5556 5558 5561 5563 5566
5580 5580 5578 5580 5575 5573 5571 5569 5567 5565 5562 5560 5557 5555 5552 5550 5548 5546 5544 5543 5541 5539 5538 5538 5538 5538 5538 5538 5538 5538 5538 5539 5540 5541 5541 5542 5543 5544 5546 5548 5550 5553 5555 5558
5574 5572 5572 5572 5570 5567 5565 5564 5561 5559 5556 5554 5551 5549 5547 5544 5542 5540 5538 5536 5535 5533 5532 5531 5531 5531 5531 5531 5531 5530 5530 5531 5531 5532 5533 5534 5535 5536 5538 5540 5543 5545 5547 5550
5568 5566 5565 5567 5564 5561 5559 5558 5555 5552 5550 5547 5544 5543 5542 5538 5536 5534 5532 5530 5528 5527 5526 5525 5525 5524 5524 5524 5523 5523 5523 5523 5524 5524 5525 5526 5527 5529 5531 5532 5534 5536 5539 5542
5562 5560 5560 5560 5557 5555 5554 5553 5549 5546 5543 5541 5538 5537 5535 5532 5530 5528 5526 5524 5522 5521 5520 5519 5518 5518 5517 5517 5516 5516 5516 5516 5516 5517 5518 5519 5520 5522 5523 5525 5527 5529 5532 5534
5556 5555 5557 5554 5551 5549 5548 5545 5542 5539 5537 5534 5532 5529 5527 5525 5523 5522 5520 5518 5517 5515 5514 5513 5512 5512 5511 5510 5510 5509 5509 5509 5510 5510 5511 5512 5513 5514 5516 5518 5520 5522 5524 5527
5552 5553 5550 5547 5545 5543 5541 5538 5536 5533 5531 5528 5525 5523 5521 5519 5517 5516 5514 5513 5511 5510 5509 5508 5507 5506 5505 5505 5504 5503 5502 5502 5503 5503 5504 5505 5506 5508 5509 5511 5513 5515 5517 5519
5546 5546 5543 5541 5539 5537 5535 5532 5530 5527 5524 5521 5519 5517 5515 5513 5512 5510 5509 5507 5506 5504 5503 5502 5501 5500 5500 5499 5498 5497 5497 5496 5496 5497 5498 5498 5500 5501 5503 5504 5505 5507 5509 5512
5540 5539 5537 5535 5533 5531 5529 5527 5524 5521 5518 5515 5512 5511 5509 5507 5506 5505 5503 5502 5500 5499 5497 5496 5496 5495 5494 5493 5492 5492 5491 5491 5491 5491 5492 5492 5493 5494 5496 5497 5498 5500 5502 5504
5535 5533 5531 5529 5527 5525 5523 5521 5518 5515 5512 5510 5507 5505 5503 5502 5500 5499 5498 5497 5495 5494 5493 5492 5490 5489 5489 5488 5487 5486 5486 5485 5485 5486 5486 5487 5487 5488 5489 5490 5491 5493 5495 5497
5529 5526 5524 5522 5520 5518 5516 5514 5512 5509 5507 5504 5502 5500 5498 5497 5495 5494 5493 5492 5491 5489 5488 5487 5486 5485 5484 5483 5482 5481 5480 5480 5480 5480 5480 5481 5481 5482 5483 5484 5484 5486 5488 5490
5522 5520 5518 5516 5514 5513 5510 5508 5506 5503 5501 5499 5497 5495 5493 5492 5491 5490 5489 5488 5486 5485 5484 5483 5481 5480 5479 5477 5476 5476 5475 5475 5474 5474 5474 5475 5475 5476 5477 5477 5478 5479 5481 5483
5516 5514 5512 5510 5508 5506 5504 5502 5500 5498 5496 5494 5492 5490 5489 5487 5486 5485 5484 5483 5482 5480 5479 5478 5477 5475 5474 5473 5472 5471 5470 5469 5469 5469 5468 5469 5469 5470 5470 5471 5472 5473 5475 5476
5510 5508 5506 5504 5502 5500 5498 5497 5495 5493 5491 5489 5487 5486 5484 5483 5482 5481 5479 5478 5477 5476 5474 5473 5472 5471 5469 5468 5467 5466 5465 5464 5464 5463 5463 5463 5464 5464 5465 5465 5466 5467 5468 5470
5504 5502 5500 5499 5497 5494 5492 5491 5489 5487 5485 5484 5482 5481 5480 5478 5477 5476 5475 5474 5472 5471 5470 5468 5467 5466 5465 5463 5462 5461 5460 5459 5459 5458 5458 5458 5458 5459 5459 5460 5460 5461 5463 5464
5497 5496 5494 5492 5490 5488 5487 5485 5483 5482 5480 5479 5477 5476 5475 5474 5473 5472 5471 5469 5468 5466 5465 5464 5462 5461 5460 5459 5457 5456 5455 5454 5454 5453 5453 5453 5453 5454 5454 5455 5455 5456 5457 5458
5491 5489 5488 5486 5484 5482 5481 5479 5478 5476 5475 5474 5473 5472 5471 5470 5469 5467 5466 5465 5463 5462 5461 5459 5458 5457 5455 5454 5453 5452 5451 5450 5449 5448 5448 5448 5448 5449 5449 5450 5451 5452 5452 5453
5484 5483 5481 5479 5478 5477 5475 5474 5472 5471 5470 5469 5468 5467 5466 5465 5464 5463 5461 5460 5459 5458 5456 5455 5454 5452 5451 5450 5449 5447 5446 5445 5444 5444 5444 5444 5444 5444 5445 5446 5447 5447 5448 5449
5477 5476 5474 5473 5472 5471 5469 5468 5467 5466 5464 5463 5463 5462 5461 5460 5459 5458 5456 5455 5454 5453 5452 5450 5449 5447 5446 5445 5444 5443 5441 5441 5440 5439 5439 5439 5440 5440 5441 5442 5442 5443 5444 5445
5471 5469 5468 5467 5466 5465 5464 5462 5461 5460 5459 5458 5457 5456 5456 5455 5454 5453 5451 5451 5449 5448 5447 5446 5444 5443 5441 5440 5439 5438 5437 5436 5435 5435 5435 5435 5435 5436 5436 5437 5438 5439 5440 5442
5464 5463 5462 5461 5460 5459 5458 5457 5456 5455 5454 5453 5452 5451 5450 5449 5448 5448 5447 5446 5444 5443 5442 5441 5439 5438 5437 5436 5434 5433 5432 5432 5431 5431 5430 5430 5431 5431 5432 5433 5433 5435 5436 5438
5459 5457 5456 5455 5454 5453 5452 5451 5450 5449 5448 5447 5446 5446 5445 5444 5443 5442 5441 5440 5439 5438 5437 5436 5434 5433 5432 5431 5430 5429 5428 5427 5426 5426 5426 5426 5426 5427 5427 5428 5430 5431 5433 5434
5452 5451 5450 5449 5448 5447 5446 5445 5444 5443 5442 5441 5441 5440 5439 5439 5438 5437 5436 5435 5434 5433 5432 5431 5430 5428 5427 5426 5425 5424 5423 5422 5421 5421 5421 5421 5421 5422 5423 5424 5426 5427 5429 5431
5446 5445 5444 5443 5442 5441 5440 5439 5439 5438 5437 5436 5435 5435 5434 5433 5433 5432 5431 5430 5429 5428 5427 5426 5425 5424 5422 5421 5420 5419 5418 5417 5417 5416 5416 5416 5417 5417 5418 5420 5422 5423 5425 5427
5441 5439 5438 5437 5436 5435 5435 5434 5433 5432 5431 5430 5430 5429 5429 5428 5427 5427 5426 5425 5425 5424 5423 5421 5420 5419 5418 5417 5416 5415 5414 5413 5413 5412 5412 5412 5413 5413 5415 5416 5418 5420 5422 5424